Flag for U.S.A. Weather past 2 weeks in Frankfort, Kentucky, U.S.A.

Now
80 °F

Sunny.


Feels Like: 84 °F
Forecast: 72 / 90 °F
Wind: 7 mph from Southwest

Location: Capital City Airport

Current Time: Jul 28, 2015 at 9:30:36 PM

Latest Report: Jul 28, 2015 at 8:53 PM


Visibility: 10 mi

Pressure: 29.92 "Hg

Humidity: 79%

Dew point: 73 °F

Location of FrankfortLocation

Historic Weather in Frankfort — Graph

°F

Frankfort temperature yesterday

Maximum temperature yesterday: 87 °F (at 5:53 PM)
Minimum temperature yesterday: 74 °F (at 6:53 AM)
Average temperature yesterday: 80 °F

Past Weeks' High & Low Weather Summary

 TemperatureHumidityPressure
High91 °F (Jul 18, 4:53 PM)94% (Jul 21, 2:53 AM)30.04 "Hg (Jul 21, 2:53 AM)
Low61 °F (Jul 24, 5:53 AM)35% (Jul 22, 6:53 PM)29.57 "Hg (Jul 14, 5:53 PM)
Average77 °F74%29.91 "Hg
* Reported Jul 13 7:53 PM — Jul 28 7:53 PM, Frankfort, Weather by CustomWeather, © 2015

Note: Actual official high and low records may vary slightly from our data, if they occured in-between our weather recording intervals... More about our weather records

Advertising

Frankfort weather history for previous 24 hours

 ConditionsComfort  
Time TempWeatherWind HumidityBarometerVisibility
7:53 PM
Tue, Jul 28
82 °FPassing clouds.3 mph77%29.92 "Hg10 mi
6:53 PM81 °FSunny.No wind77%29.90 "Hg10 mi
5:01 PM76 °FThunderstorms. Mostly cloudy.12 mph85%29.97 "Hg10 mi
3:53 PM91 °FThundershowers. Broken clouds.7 mph56%29.92 "Hg10 mi
2:53 PM88 °FScattered clouds.7 mph63%29.93 "Hg10 mi
1:53 PM89 °FScattered clouds.6 mph63%29.96 "Hg10 mi
12:53 PM86 °FScattered clouds.9 mph70%29.96 "Hg9 mi
11:53 AM83 °FRain. Cloudy.6 mph77%29.96 "Hg3 mi
10:53 AM84 °FSunny.5 mph74%29.97 "Hg9 mi
9:53 AM80 °FPassing clouds.6 mph81%29.97 "Hg8 mi
8:53 AM79 °FScattered clouds.3 mph82%29.97 "Hg7 mi
7:53 AM76 °FSunny.No wind85%29.96 "Hg6 mi
6:53 AM72 °FFog.No wind91%29.96 "Hg6 mi
5:53 AM71 °FClear.No wind93%29.94 "Hg7 mi
4:53 AM72 °FClear.No wind91%29.94 "Hg8 mi
3:53 AM72 °FClear.No wind91%29.93 "Hg10 mi
2:53 AM74 °FClear.No wind85%29.95 "Hg10 mi
1:53 AM76 °FMostly cloudy.6 mph77%29.97 "Hg10 mi
1:04 AM76 °FClear.6 mph88%30.00 "Hg10 mi
12:53 AM77 °FThundershowers. Clear.6 mph85%29.97 "Hg10 mi
11:53 PM
Mon, Jul 27
76 °FFog.No wind91%29.97 "Hg6 mi
10:53 PM78 °FClear.No wind84%29.96 "Hg8 mi
9:53 PM78 °FClear.No wind84%29.94 "Hg8 mi
Weather by CustomWeather, © 2015

See weather overviewHow to use our weather pages